User: anonymous   Login
Location: Onan Observatory
(44.8103°N, 93.9397°W)
Time: 18:43:29
(UTC-05:00)
Language:

Iridium 90 - Orbit

View from above orbital plane
View from above orbital plane
View from above satellite
View from above satellite

Ground track
Ground track

The orbit data is extracted from the following two-line orbital elements,

1 27373U 02005B   16152.50738745  .00000043  00000-0  67676-5 0  9997
2 27373  86.4464 149.6308 0002267  91.6456 268.5004 14.42954577756310
Epoch (UTC): 31 May 2016 12:10:38
Eccentricity: 0.0002267
inclination: 86.4464°
perigee height: 747 km
apogee height: 750 km
right ascension of ascending node: 149.6308°
argument of perigee: 91.6456°
revolutions per day: 14.42954577
mean anomaly at epoch: 268.5004°
orbit number at epoch: 75631

The dashed part of the orbit path shows where the satellite is in the earth's shadow,  

DLR